{"data":{"norad_id":52340,"epoch":"2026-05-24T21:33:18.324000Z","epoch_age_seconds":83778,"freshness":"FRESH","line1":"1 52340U 22045K   26144.89812875  .00000034  00000+0  20252-4 0  9993","line2":"2 52340  53.2128 217.0065 0001092  98.5255 261.5861 15.08835641227274","mean_motion":15.08835641,"eccentricity":0.0001092,"inclination_deg":53.2128,"raan_deg":217.0065,"arg_perigee_deg":98.5255,"mean_anomaly_deg":261.5861,"bstar":2.0252e-5,"rev_number":22727,"period_min":95.437830395206,"perigee_km":539.00127872191,"apogee_km":540.51214670876,"semimajor_km":6917.8937127153,"source":"CELESTRAK","updated_at":"2026-05-25T13:38:17.114083Z"}}